Location: St. Louis
(38.6270°N, 90.1994°W)
Time: 08:50:12
(UTC-06:00)

SR - Pass Details

Date: 06 December 2021
Orbit: 582 x 872 km, 66.7° (Epoch: 21 January)

Event Time Altitude Azimuth Distance (km) Brightness Sun altitude
Rises 07:13:49 0° 339° (NNW) 2,830 ? 0.7°
Reaches altitude 10° 07:16:08 10° 348° (NNW) 1,945 ? 1.1°
Maximum altitude 07:20:12 37° 57° (ENE) 963 ? 1.8°
Drops below altitude 10° 07:24:29 10° 125° (SE) 2,052 ? 2.5°
Sets 07:27:00 0° 133° (SE) 3,008 ? 2.9°
